[[{"header":{"parameterUnit":"m.s-1","parameterCategory":1,"la1":30.2991,"la2":30.254,"lo1":-89.0895,"lo2":-89.0444,"dy":0.0017,"dx":0.0017,"nx":28,"ny":28,"refTime":"2024-07-23T21:00:00:Z","depth":0,"parameterNumber":2,"parameterNumberName":"U-component_of_WINDS"},"data":[0,0,0,0,0,0,0,0,0,0,0,0,0,0,0,0,0,0,0,0,0,0,0,0,0,0,0,0,0,0,0,0,0,0,0,0,0,0,0,0,0,0,0,0,0,0,0,0,0,0,0,0,0,0,0,0,0,0,-3.4081,-3.4081,0,-3.4122,-3.4122,-3.4123,-3.4031,-3.4028,-3.4025,-3.4022,-3.4063,-3.4067,-3.4071,0,0,0,0,0,0,0,0,0,0,0,0,0,-3.3921,-3.3924,-3.4081,-3.4081,-3.4082,-3.4122,-3.4122,-3.4123,-3.4031,-3.4028,-3.4024,-3.4021,-3.4062,-3.4066,-3.4071,0,0,0,0,0,0,0,0,0,0,0,0,0,-3.3979,-3.3925,-3.4081,-3.4041,-3.4038,-3.4122,-3.4122,-3.4123,-3.4032,-3.4027,-3.4023,-3.4019,-3.406,-3.4066,-3.4072,-3.4196,0,0,-3.4089,-3.4092,0,0,0,0,0,0,0,0,-3.3976,-3.3985,-3.4046,-3.4044,-3.404,-3.4066,-3.4081,-3.4147,-3.4033,-3.4034,-3.4022,-3.4017,-3.4068,-3.4073,-3.409,-3.4198,-3.4199,-3.409,-3.4093,-3.4096,-3.4097,0,0,0,0,0,0,0,-3.3972,-3.3983,-3.4097,-3.4047,-3.4044,-3.402,-3.4024,-3.4093,-3.4075,-3.4034,-3.4027,-3.4033,-3.4065,-3.4085,-3.409,-3.42,-3.4089,-3.4095,-3.4098,-3.41,-3.4408,-3.4413,0,0,0,0,0,0,-3.3973,-3.398,-3.4095,-3.4098,-3.3996,-3.4027,-3.403,-3.4063,-3.4074,-3.4072,-3.4037,-3.4029,-3.4077,-3.4084,-3.4091,-3.4235,-3.4096,-3.4101,-3.4104,-3.4404,-3.441,-3.4415,0,0,0,0,0,0,-3.397,-3.3984,-3.4094,-3.4037,-3.4049,-3.4034,-3.4071,-3.4066,-3.4085,-3.4077,-3.4073,-3.406,-3.4074,-3.4083,-3.417,-3.4235,-3.4104,-3.4109,-3.4398,-3.4406,-3.4412,-3.4525,0,0,0,0,0,0,-3.3966,-3.3984,-3.4031,-3.4039,-3.4053,-3.4173,-3.4075,-3.407,-3.4095,-3.4085,-3.4097,-3.4095,-3.4071,-3.4162,-3.4176,-3.4241,-3.4113,-3.4392,-3.4401,-3.441,-3.4515,-3.4535,-3.4552,0,0,0,0,0,-3.396,-3.4062,-3.4034,-3.4049,-3.4112,-3.4177,-3.4184,-3.4155,-3.4101,-3.4148,-3.4142,-3.4095,-3.4226,-3.4171,-3.4186,-3.4254,-3.4388,-3.4399,-3.4409,-3.4507,-3.4531,-3.4552,0,0,0,0,0,0,-3.4062,-3.4062,-3.4031,-3.4139,-3.4158,-3.4161,-3.4219,-3.4182,-3.4217,-3.4206,-3.4167,-3.4171,-3.4264,-3.4268,-3.4207,-3.4373,-3.4298,-3.4312,-3.4367,-3.439,-3.4408,-3.4404,-3.4118,0,0,0,0,0,-3.4098,-3.4151,-3.4147,-3.4242,-3.4253,-3.4235,-3.4262,-3.4238,-3.4256,-3.4264,-3.4265,-3.4284,-3.433,-3.436,-3.4402,-3.4516,-3.4516,-3.457,-3.4588,-3.4603,-3.4615,-3.4673,-3.4696,-3.445,-3.4449,-3.4449,0,0,-3.417,-3.4177,-3.4212,-3.4263,-3.4275,-3.4329,-3.4243,-3.4305,-3.4344,-3.4273,-3.4354,-3.4356,-3.4375,-3.4475,-3.452,-3.4481,-3.4684,-3.4617,-3.4629,-3.4633,-3.4687,-3.471,-3.4731,-3.4457,-3.4455,-3.4454,0,0,-3.433,-3.4341,-3.442,-3.4434,-3.4454,-3.4441,-3.446,-3.4468,-3.4466,-3.4547,-3.4494,-3.4541,-3.4621,-3.4635,-3.4654,-3.4818,-3.4775,-3.4833,-3.4928,-3.4985,-3.5004,-3.5021,-3.5077,-3.5098,-3.4845,-3.4846,-3.4846,0,-3.4418,-3.4498,-3.4465,-3.4531,-3.4553,-3.4492,-3.457,-3.4585,-3.4618,-3.4634,-3.4592,-3.4689,-3.4698,-3.4799,-3.4839,-3.4857,-3.4876,-3.483,-3.5004,-3.5021,-3.5036,-3.5089,-3.5111,-3.4852,-3.4852,-3.4851,-3.485,0,-3.4604,-3.466,-3.4722,-3.4754,-3.4784,-3.4856,-3.4832,-3.4867,-3.4839,-3.4831,-3.4913,-3.4921,-3.4962,-3.4985,-3.4959,-3.5083,-3.5058,-3.5011,-3.4933,-3.5067,-3.5116,-3.5136,-3.4862,-3.486,-3.4858,-3.4856,0,0,-3.4828,-3.4841,-3.4863,-3.4876,-3.4893,-3.4936,-3.5004,-3.5044,-3.5073,-3.5098,-3.5152,-3.5221,-3.5176,-3.5197,-3.5173,-3.5223,-3.535,-3.5169,-3.5169,-3.52,-3.5483,-3.5517,-3.5541,-3.5322,-3.5326,-3.5329,-3.548,0,-3.4984,-3.5101,-3.5073,-3.5189,-3.5239,-3.5181,-3.524,-3.5256,-3.525,-3.5291,-3.5284,-3.5332,-3.5271,-3.5283,-3.5331,-3.5324,-3.5405,-3.5313,-3.5371,-3.5373,-3.5365,-3.5567,-3.5603,-3.5746,-3.55,-3.5503,-3.5505,0,-3.5182,-3.5213,-3.5333,-3.534,-3.536,-3.5414,-3.5447,-3.5488,-3.5504,-3.5496,-3.5519,-3.5484,-3.555,-3.5474,-3.5563,-3.5501,-3.5523,-3.5524,-3.5528,-3.5531,-3.5446,-3.5572,-3.5791,-3.5812,-3.5536,-3.5533,-3.5531,0,-3.533,-3.5402,-3.5483,-3.5496,-3.5507,-3.5545,-3.5551,-3.5563,-3.5589,-3.5618,-3.5633,-3.5671,-3.569,-3.5719,-3.5695,-3.5642,-3.5787,-3.571,-3.578,-3.5781,-3.5812,-3.581,-3.6034,-3.5831,-3.583,-3.583,-3.5829,0,-3.5506,-3.5581,-3.5549,-3.5599,-3.5681,-3.5648,-3.573,-3.5729,-3.574,-3.5787,-3.574,-3.5786,-3.5752,-3.5794,-3.5776,-3.5851,-3.5861,-3.5855,-3.5848,-3.5858,-3.5858,-3.587,-3.5858,-3.5835,-3.5834,-3.5833,-3.5832,0,-3.5684,-3.5667,-3.575,-3.5753,-3.5755,-3.5815,-3.5817,-3.5862,-3.5852,-3.5913,-3.5925,-3.5909,-3.5956,-3.5935,-3.5985,-3.5972,-3.6068,-3.605,-3.6063,-3.6057,-3.6128,-3.6121,-3.6366,-3.6396,-3.6175,-3.6177,-3.6179,0,-3.5796,-3.5853,-3.5861,-3.5889,-3.5899,-3.5945,-3.597,-3.594,-3.5968,-3.599,-3.6032,-3.6075,-3.6107,-3.6185,-3.6178,-3.6215,-3.6196,-3.6279,-3.6201,-3.6208,-3.6194,-3.619,-3.6194,-3.6294,-3.6297,-3.6299,-3.6301,0,-3.5996,-3.5984,-3.6022,-3.6058,-3.6089,-3.6115,-3.6137,-3.6163,-3.6133,-3.6166,-3.6214,-3.6239,-3.6289,-3.6331,-3.6364,-3.6369,-3.633,-3.6326,-3.6343,-3.6352,-3.6356,-3.6352,-3.6103,-3.632,-3.6318,-3.6316,-3.6315,-3.6315,-3.6143,-3.619,-3.6202,-3.6246,-3.6259,-3.628,-3.6322,-3.6317,-3.6356,-3.6394,-3.6374,-3.6429,-3.6442,-3.6481,-3.6492,-3.6533,-3.65,-3.6527,-3.6533,-3.6539,-3.6547,-3.6351,-3.6539,-3.6539,-3.6538,-3.6538,-3.6538,0,-3.6338,-3.6343,-3.6384,-3.6416,-3.645,-3.641,-3.6432,-3.6462,-3.6511,-3.6527,-3.656,-3.6613,-3.6654,-3.665,-3.6686,-3.672,-3.6703,-3.6731,-3.6727,-3.6728,-3.6576,-3.6556,-3.6744,-3.6744,-3.6744,-3.6744,-3.6744,-3.6744,-3.6444,-3.6519,-3.6509,-3.659,-3.6594,-3.6647,-3.6662,-3.6681,-3.6693,-3.6755,-3.6789,-3.6785,-3.6793,-3.683,-3.6865,-3.6862,-3.6877,-3.6911,-3.6902,-3.676,-3.6739,-3.6719,-3.67,-3.6915,-3.6915,-3.7049,-3.7051,-3.7052]},{"header":{"parameterUnit":"m.s-1","parameterCategory":1,"la1":30.2991,"la2":30.254,"lo1":-89.0895,"lo2":-89.0444,"dy":0.0017,"dx":0.0017,"nx":28,"ny":28,"refTime":"2024-07-23T21:00:00:Z","depth":0,"parameterNumber":3,"parameterNumberName":"V-component_of_WINDS"},"data":[0,0,0,0,0,0,0,0,0,0,0,0,0,0,0,0,0,0,0,0,0,0,0,0,0,0,0,0,0,0,0,0,0,0,0,0,0,0,0,0,0,0,0,0,0,0,0,0,0,0,0,0,0,0,0,0,0,0,1.4187,1.4186,0,1.4146,1.4146,1.4145,1.4083,1.4082,1.4081,1.408,1.404,1.404,1.404,0,0,0,0,0,0,0,0,0,0,0,0,0,1.4212,1.4211,1.4187,1.4186,1.4186,1.4146,1.4146,1.4145,1.4083,1.4082,1.4081,1.408,1.404,1.404,1.404,0,0,0,0,0,0,0,0,0,0,0,0,0,1.4189,1.4211,1.4187,1.415,1.4146,1.4147,1.4146,1.4145,1.4084,1.4082,1.408,1.4079,1.404,1.404,1.404,1.4073,0,0,1.4039,1.4039,0,0,0,0,0,0,0,0,1.419,1.4188,1.4156,1.4153,1.4149,1.4118,1.414,1.4121,1.4084,1.4108,1.408,1.4078,1.4067,1.4065,1.4061,1.4071,1.4069,1.4039,1.4039,1.4039,1.4039,0,0,0,0,0,0,0,1.4192,1.419,1.4171,1.4156,1.4151,1.4136,1.4131,1.4136,1.4097,1.4105,1.4101,1.4097,1.4065,1.4061,1.4059,1.4068,1.4039,1.4039,1.4039,1.4039,1.4104,1.4106,0,0,0,0,0,0,1.4199,1.4191,1.4172,1.417,1.4166,1.4137,1.4131,1.413,1.4097,1.409,1.4098,1.4094,1.4062,1.406,1.4058,1.4095,1.4039,1.4039,1.4039,1.4102,1.4105,1.4106,0,0,0,0,0,0,1.42,1.4198,1.4174,1.4179,1.4175,1.4138,1.4137,1.413,1.4126,1.4092,1.4085,1.4102,1.4061,1.4058,1.4069,1.4092,1.4039,1.4039,1.41,1.4103,1.4105,1.4169,0,0,0,0,0,0,1.4201,1.4198,1.421,1.418,1.4175,1.4186,1.4138,1.413,1.4126,1.412,1.4093,1.4087,1.4059,1.407,1.4069,1.4091,1.4039,1.4098,1.4102,1.4105,1.4165,1.4173,1.4181,0,0,0,0,0,1.4202,1.423,1.4211,1.4209,1.4189,1.4187,1.4184,1.4152,1.4128,1.414,1.4118,1.4088,1.409,1.4072,1.4071,1.4093,1.4096,1.4101,1.4104,1.4161,1.4172,1.4181,0,0,0,0,0,0,1.4264,1.4225,1.4204,1.4223,1.4209,1.4177,1.4191,1.4164,1.4157,1.4152,1.4112,1.4106,1.4123,1.4109,1.4089,1.4124,1.4089,1.4093,1.4132,1.4142,1.415,1.4153,1.4039,0,0,0,0,0,1.428,1.4281,1.4247,1.4268,1.4262,1.4228,1.4226,1.4202,1.4186,1.4179,1.4158,1.4144,1.4142,1.4141,1.4137,1.4162,1.4156,1.4177,1.4185,1.4192,1.4196,1.4209,1.4218,1.4119,1.4119,1.4119,0,0,1.4313,1.4292,1.4295,1.428,1.4266,1.4269,1.4223,1.4228,1.423,1.418,1.419,1.4174,1.4156,1.4175,1.4182,1.4164,1.4222,1.4197,1.4203,1.4203,1.4214,1.4224,1.4232,1.4122,1.4122,1.4121,0,0,1.4374,1.4358,1.4373,1.4361,1.434,1.4318,1.4322,1.4294,1.4281,1.429,1.4253,1.4255,1.4252,1.424,1.4234,1.4292,1.4264,1.4292,1.4335,1.4348,1.4356,1.4362,1.4384,1.4392,1.4296,1.4296,1.4296,0,1.4418,1.442,1.4385,1.4392,1.4387,1.4342,1.4357,1.4347,1.4326,1.4324,1.4304,1.4299,1.4283,1.4299,1.4313,1.431,1.4313,1.4295,1.4357,1.4364,1.4369,1.4389,1.4397,1.43,1.4299,1.4299,1.4299,0,1.4475,1.4477,1.4492,1.4474,1.447,1.4481,1.4448,1.4448,1.4425,1.4405,1.4415,1.4395,1.4386,1.4388,1.4366,1.4401,1.439,1.4365,1.4329,1.4383,1.4401,1.4408,1.4305,1.4304,1.4303,1.4302,0,0,1.4574,1.4536,1.4542,1.4533,1.4508,1.4509,1.4519,1.451,1.4512,1.45,1.4507,1.4506,1.4482,1.4475,1.445,1.4462,1.451,1.4434,1.4433,1.4449,1.4549,1.4569,1.4578,1.4491,1.4493,1.4494,1.455,0,1.4631,1.4644,1.4613,1.4635,1.4637,1.4595,1.4604,1.459,1.4571,1.4571,1.455,1.455,1.4518,1.4514,1.4523,1.4502,1.4529,1.4498,1.4498,1.4499,1.4504,1.4587,1.4608,1.4662,1.4557,1.4558,1.4559,0,1.4698,1.4689,1.4711,1.4685,1.4685,1.4693,1.4683,1.4683,1.4666,1.4652,1.4645,1.4617,1.4625,1.4591,1.4602,1.4581,1.458,1.457,1.4571,1.457,1.4532,1.4589,1.4679,1.4687,1.457,1.4569,1.4568,0,1.4769,1.4762,1.4775,1.4768,1.4738,1.4745,1.4733,1.4715,1.4712,1.4703,1.4701,1.4693,1.469,1.4685,1.4656,1.4633,1.4671,1.4634,1.466,1.4661,1.4669,1.4669,1.4761,1.4668,1.4668,1.4668,1.4668,0,1.4835,1.485,1.4806,1.4814,1.483,1.4794,1.4811,1.4795,1.4779,1.4783,1.4747,1.4752,1.4713,1.4714,1.4691,1.4704,1.4702,1.4692,1.4685,1.4695,1.4697,1.4694,1.4689,1.467,1.467,1.4669,1.4669,0,1.4916,1.4887,1.4898,1.4869,1.4862,1.4875,1.485,1.4857,1.4836,1.4842,1.4841,1.4809,1.4808,1.4779,1.4772,1.4757,1.4779,1.4766,1.4785,1.4781,1.4809,1.4807,1.4902,1.4913,1.4813,1.4814,1.4815,0,1.4961,1.4971,1.4943,1.4943,1.4933,1.4934,1.493,1.4896,1.4894,1.4876,1.4885,1.4881,1.4876,1.4877,1.4854,1.4848,1.4835,1.4869,1.4834,1.4844,1.4836,1.4836,1.4837,1.4876,1.4877,1.4878,1.4879,0,1.5043,1.5028,1.5024,1.5016,1.5013,1.5005,1.4995,1.4997,1.4959,1.496,1.4958,1.4955,1.4948,1.4945,1.4935,1.4923,1.4895,1.4891,1.4896,1.4906,1.4917,1.4912,1.4805,1.4888,1.4888,1.4887,1.4886,1.4886,1.5107,1.5115,1.5096,1.5094,1.5082,1.5074,1.5079,1.5059,1.5057,1.5048,1.5028,1.503,1.5014,1.4998,1.4989,1.4991,1.4973,1.4982,1.4984,1.4987,1.4992,1.4917,1.4989,1.4988,1.4988,1.4988,1.4988,0,1.5187,1.5173,1.5171,1.5158,1.5157,1.513,1.5118,1.5118,1.5121,1.5108,1.5104,1.5103,1.51,1.5076,1.5071,1.5077,1.5064,1.5076,1.5076,1.5074,1.5007,1.5003,1.5087,1.5087,1.5087,1.5087,1.5087,1.5087,1.5229,1.5241,1.5224,1.523,1.5216,1.5218,1.5213,1.5205,1.5195,1.5195,1.5193,1.5177,1.516,1.5153,1.515,1.5143,1.5143,1.516,1.5149,1.5088,1.5078,1.5069,1.5065,1.516,1.516,1.5215,1.5215,1.5216]}]]